LVBWN SAZR-SADF

Flight info

Callsign LVBWN
Flight time 1h 31m
Altitude 21000
Route TIMK2G TIMKU W73 IRASU W68 BODIR ASADA DCT
Aircraft B58T/L-SG/C

Departure

Time 2026-04-25 01:34
Airport Santa Rosa Airport (SAZR)

Arrival

Time 2026-04-25 03:05
Airport San Fernando Airport (SADF)
Time Latitude Longitude Altitude Speed Heading
2026-04-25 01:18 -36.59220 -64.27889 620 ft 0 kts 298°
2026-04-25 01:27 -36.59215 -64.27894 621 ft 4 kts 359°
2026-04-25 01:28 -36.59162 -64.27766 621 ft 0 kts 67°
2026-04-25 01:28 -36.59160 -64.27760 624 ft 0 kts 67°
2026-04-25 01:30 -36.59158 -64.27756 624 ft 4 kts 68°
2026-04-25 01:30 -36.59128 -64.27667 621 ft 15 kts 52°
2026-04-25 01:30 -36.59011 -64.27614 619 ft 21 kts 11°
2026-04-25 01:30 -36.58860 -64.27572 624 ft 24 kts 12°
2026-04-25 01:31 -36.58689 -64.27525 624 ft 27 kts 12°
2026-04-25 01:31 -36.58494 -64.27480 623 ft 30 kts 11°
2026-04-25 01:31 -36.58286 -64.27428 626 ft 31 kts 13°
2026-04-25 01:31 -36.58063 -64.27372 625 ft 32 kts 13°
2026-04-25 01:32 -36.57872 -64.27316 632 ft 16 kts 15°
2026-04-25 01:32 -36.57809 -64.27314 626 ft 4 kts 219°
2026-04-25 01:32 -36.57820 -64.27316 634 ft 0 kts 192°
2026-04-25 01:33 -36.58075 -64.27379 625 ft 80 kts 191°
2026-04-25 01:34 -36.58809 -64.27561 720 ft 124 kts 194°
2026-04-25 01:34 -36.59668 -64.27843 1114 ft 133 kts 200°
2026-04-25 01:34 -36.60592 -64.28115 1534 ft 134 kts 183°
2026-04-25 01:34 -36.61468 -64.27889 2072 ft 126 kts 154°
2026-04-25 01:35 -36.62096 -64.27111 2391 ft 136 kts 125°
2026-04-25 01:35 -36.62512 -64.26050 2747 ft 136 kts 123°
2026-04-25 01:35 -36.62959 -64.25026 3096 ft 134 kts 124°
2026-04-25 01:35 -36.63415 -64.24002 3439 ft 135 kts 124°
2026-04-25 01:36 -36.63868 -64.22990 3762 ft 136 kts 125°
2026-04-25 01:36 -36.64330 -64.21959 4089 ft 137 kts 125°
2026-04-25 01:36 -36.64795 -64.20918 4414 ft 138 kts 125°
2026-04-25 01:36 -36.65263 -64.19871 4747 ft 139 kts 125°
2026-04-25 01:37 -36.65738 -64.18809 5073 ft 141 kts 125°
2026-04-25 01:37 -36.66212 -64.17746 5389 ft 142 kts 124°
2026-04-25 01:37 -36.66693 -64.16661 5704 ft 144 kts 124°
2026-04-25 01:37 -36.67179 -64.15557 6034 ft 146 kts 123°
2026-04-25 01:38 -36.67666 -64.14444 6360 ft 147 kts 122°
2026-04-25 01:38 -36.68157 -64.13313 6682 ft 149 kts 122°
2026-04-25 01:38 -36.68654 -64.12162 6964 ft 152 kts 122°
2026-04-25 01:38 -36.69159 -64.10990 7258 ft 155 kts 122°
2026-04-25 01:39 -36.69665 -64.09795 7556 ft 157 kts 120°
2026-04-25 01:39 -36.69775 -64.08449 7853 ft 163 kts 69°
2026-04-25 01:39 -36.69056 -64.07449 8162 ft 157 kts 25°
2026-04-25 01:39 -36.68105 -64.06769 8471 ft 158 kts 24°
2026-04-25 01:40 -36.67143 -64.06080 8788 ft 160 kts 24°
2026-04-25 01:40 -36.66170 -64.05381 9098 ft 162 kts 24°
2026-04-25 01:40 -36.65187 -64.04670 9413 ft 164 kts 24°
2026-04-25 01:40 -36.64196 -64.03948 9731 ft 166 kts 24°
2026-04-25 01:41 -36.63193 -64.03213 10039 ft 167 kts 24°
2026-04-25 01:41 -36.62187 -64.02472 10331 ft 169 kts 24°
2026-04-25 01:41 -36.61171 -64.01718 10621 ft 170 kts 24°
2026-04-25 01:41 -36.60166 -64.00966 10907 ft 171 kts 24°
2026-04-25 01:42 -36.59139 -64.00195 11199 ft 172 kts 24°
2026-04-25 01:42 -36.58106 -63.99415 11501 ft 173 kts 24°
2026-04-25 01:42 -36.57077 -63.98632 11799 ft 174 kts 24°
2026-04-25 01:42 -36.56033 -63.97833 12104 ft 175 kts 24°
2026-04-25 01:43 -36.54977 -63.97143 12399 ft 170 kts
2026-04-25 01:43 -36.53845 -63.96787 12717 ft 170 kts
2026-04-25 01:43 -36.52776 -63.96080 13027 ft 180 kts 31°
2026-04-25 01:43 -36.51836 -63.95028 13347 ft 183 kts 36°
2026-04-25 01:44 -36.50904 -63.93945 13662 ft 184 kts 35°
2026-04-25 01:44 -36.49957 -63.92867 13973 ft 184 kts 34°
2026-04-25 01:44 -36.49004 -63.91791 14259 ft 185 kts 34°
2026-04-25 01:44 -36.48046 -63.90709 14548 ft 186 kts 34°
2026-04-25 01:45 -36.47085 -63.89624 14834 ft 187 kts 34°
2026-04-25 01:45 -36.46116 -63.88530 15129 ft 188 kts 34°
2026-04-25 01:45 -36.45158 -63.87448 15421 ft 189 kts 33°
2026-04-25 01:45 -36.44171 -63.86335 15722 ft 190 kts 33°
2026-04-25 01:46 -36.43206 -63.85246 16017 ft 190 kts 33°
2026-04-25 01:46 -36.42221 -63.84136 16318 ft 191 kts 33°
2026-04-25 01:46 -36.41237 -63.83027 16623 ft 191 kts 32°
2026-04-25 01:46 -36.40243 -63.81907 16938 ft 192 kts 32°
2026-04-25 01:47 -36.39261 -63.80801 17246 ft 193 kts 32°
2026-04-25 01:47 -36.38258 -63.79686 17552 ft 193 kts 30°
2026-04-25 01:47 -36.37196 -63.78678 17856 ft 190 kts 21°
2026-04-25 01:47 -36.36115 -63.77693 18135 ft 202 kts 41°
2026-04-25 01:48 -36.35244 -63.76308 18440 ft 201 kts 38°
2026-04-25 01:48 -36.34251 -63.75115 18720 ft 197 kts 31°
2026-04-25 01:48 -36.33347 -63.73836 18999 ft 207 kts 53°
2026-04-25 01:48 -36.32643 -63.72278 19299 ft 207 kts 52°
2026-04-25 01:49 -36.31918 -63.70741 19582 ft 207 kts 52°
2026-04-25 01:49 -36.31199 -63.69190 19871 ft 207 kts 53°
2026-04-25 01:49 -36.30482 -63.67632 20165 ft 207 kts 53°
2026-04-25 01:49 -36.29768 -63.66080 20457 ft 207 kts 53°
2026-04-25 01:50 -36.29052 -63.64530 20755 ft 206 kts 52°
2026-04-25 01:50 -36.28351 -63.63011 21047 ft 205 kts 52°
2026-04-25 01:50 -36.27613 -63.61425 21080 ft 220 kts 53°
2026-04-25 01:50 -36.26827 -63.59730 21097 ft 233 kts 53°
2026-04-25 01:51 -36.25999 -63.57935 21093 ft 243 kts 54°
2026-04-25 01:51 -36.25154 -63.56105 21091 ft 251 kts 54°
2026-04-25 01:51 -36.24269 -63.54193 21093 ft 257 kts 54°
2026-04-25 01:51 -36.23367 -63.52244 21088 ft 263 kts 54°
2026-04-25 01:52 -36.22463 -63.50292 21088 ft 266 kts 54°
2026-04-25 01:52 -36.21536 -63.48294 21087 ft 269 kts 54°
2026-04-25 01:52 -36.20597 -63.46271 21084 ft 271 kts 54°
2026-04-25 01:52 -36.19654 -63.44238 21086 ft 272 kts 54°
2026-04-25 01:53 -36.18706 -63.42198 21085 ft 273 kts 54°
2026-04-25 01:53 -36.17758 -63.40160 21079 ft 274 kts 54°
2026-04-25 01:53 -36.17449 -63.39495 21086 ft 274 kts 54°
2026-04-25 01:53 -36.16683 -63.37848 21086 ft 275 kts 54°
2026-04-25 01:54 -36.15715 -63.35771 21086 ft 275 kts 54°
2026-04-25 01:54 -36.14773 -63.33747 21081 ft 276 kts 54°
2026-04-25 01:54 -36.13810 -63.31682 21078 ft 276 kts 54°
2026-04-25 01:54 -36.12849 -63.29622 21085 ft 276 kts 54°
2026-04-25 01:55 -36.12351 -63.28553 21086 ft 276 kts 54°
2026-04-25 01:55 -36.11390 -63.26497 21077 ft 276 kts 54°
2026-04-25 01:55 -36.10433 -63.24448 21074 ft 273 kts 54°
2026-04-25 01:55 -36.09497 -63.22443 21072 ft 271 kts 54°
2026-04-25 01:56 -36.08559 -63.20440 21064 ft 270 kts 54°
2026-04-25 01:56 -36.07793 -63.18803 21067 ft 269 kts 54°
2026-04-25 01:56 -36.06840 -63.16769 21066 ft 268 kts 54°
2026-04-25 01:56 -36.05906 -63.14774 21060 ft 267 kts 54°
2026-04-25 01:57 -36.04053 -63.10823 21056 ft 266 kts 54°
2026-04-25 01:57 -36.03123 -63.08842 21056 ft 266 kts 54°
2026-04-25 01:57 -36.02196 -63.06868 21053 ft 266 kts 54°
2026-04-25 01:58 -36.01276 -63.04911 21047 ft 265 kts 54°
2026-04-25 01:58 -36.00361 -63.02964 21048 ft 265 kts 54°
2026-04-25 01:58 -35.99450 -63.01028 21045 ft 265 kts 54°
2026-04-25 01:58 -35.98510 -62.99067 21063 ft 264 kts 53°
2026-04-25 01:59 -35.97534 -62.97146 21036 ft 264 kts 50°
2026-04-25 01:59 -35.96500 -62.95299 20988 ft 264 kts 47°
2026-04-25 01:59 -35.95370 -62.93523 21002 ft 260 kts 43°
2026-04-25 01:59 -35.94300 -62.91721 21012 ft 266 kts 60°
2026-04-25 02:00 -35.93726 -62.89548 21039 ft 268 kts 71°
2026-04-25 02:00 -35.93115 -62.87394 21059 ft 264 kts 59°
2026-04-25 02:00 -35.92192 -62.85448 21059 ft 260 kts 50°
2026-04-25 02:00 -35.91201 -62.83576 21059 ft 262 kts 52°
2026-04-25 02:01 -35.90270 -62.81630 21059 ft 263 kts 54°
2026-04-25 02:01 -35.89368 -62.79669 21059 ft 263 kts 54°
2026-04-25 02:01 -35.88457 -62.77733 21060 ft 263 kts 54°
2026-04-25 02:01 -35.87529 -62.75787 21056 ft 263 kts 53°
2026-04-25 02:02 -35.86607 -62.73849 21060 ft 262 kts 54°
2026-04-25 02:02 -35.85681 -62.71895 21057 ft 262 kts 54°
2026-04-25 02:02 -35.84763 -62.69961 21048 ft 262 kts 54°
2026-04-25 02:02 -35.83838 -62.68014 21052 ft 262 kts 53°
2026-04-25 02:03 -35.82930 -62.66104 21053 ft 262 kts 54°
2026-04-25 02:03 -35.82014 -62.64177 21051 ft 262 kts 54°
2026-04-25 02:03 -35.81096 -62.62247 21051 ft 261 kts 53°
2026-04-25 02:03 -35.80171 -62.60306 21053 ft 261 kts 53°
2026-04-25 02:04 -35.79266 -62.58406 21056 ft 261 kts 53°
2026-04-25 02:04 -35.78329 -62.56440 21053 ft 261 kts 53°
2026-04-25 02:04 -35.77420 -62.54533 21050 ft 261 kts 53°
2026-04-25 02:04 -35.76501 -62.52607 21049 ft 261 kts 53°
2026-04-25 02:05 -35.75575 -62.50668 21049 ft 261 kts 53°
2026-04-25 02:05 -35.74651 -62.48735 21049 ft 261 kts 53°
2026-04-25 02:05 -35.73732 -62.46811 21047 ft 261 kts 53°
2026-04-25 02:05 -35.72818 -62.44901 21050 ft 261 kts 53°
2026-04-25 02:06 -35.71895 -62.42971 21051 ft 261 kts 53°
2026-04-25 02:06 -35.70972 -62.41044 21053 ft 261 kts 53°
2026-04-25 02:06 -35.70045 -62.39111 21054 ft 261 kts 53°
2026-04-25 02:06 -35.69144 -62.37229 21049 ft 261 kts 53°
2026-04-25 02:07 -35.68217 -62.35298 21049 ft 261 kts 53°
2026-04-25 02:07 -35.67291 -62.33368 21049 ft 261 kts 53°
2026-04-25 02:07 -35.66374 -62.31457 21049 ft 261 kts 53°
2026-04-25 02:07 -35.65448 -62.29530 21045 ft 261 kts 53°
2026-04-25 02:08 -35.64523 -62.27606 21047 ft 261 kts 53°
2026-04-25 02:08 -35.63594 -62.25676 21046 ft 261 kts 53°
2026-04-25 02:08 -35.62686 -62.23789 21044 ft 261 kts 53°
2026-04-25 02:08 -35.61753 -62.21851 21042 ft 261 kts 53°
2026-04-25 02:09 -35.60833 -62.19940 21041 ft 261 kts 53°
2026-04-25 02:09 -35.59914 -62.18034 21043 ft 261 kts 53°
2026-04-25 02:09 -35.58989 -62.16117 21044 ft 260 kts 53°
2026-04-25 02:09 -35.58065 -62.14203 21044 ft 260 kts 53°
2026-04-25 02:10 -35.57142 -62.12290 21043 ft 260 kts 53°
2026-04-25 02:10 -35.56220 -62.10382 21044 ft 260 kts 53°
2026-04-25 02:10 -35.55301 -62.08481 21045 ft 260 kts 53°
2026-04-25 02:10 -35.54374 -62.06564 21046 ft 260 kts 53°
2026-04-25 02:11 -35.53448 -62.04652 21044 ft 260 kts 53°
2026-04-25 02:11 -35.52519 -62.02732 21043 ft 260 kts 53°
2026-04-25 02:11 -35.51607 -62.00851 21043 ft 260 kts 53°
2026-04-25 02:11 -35.50684 -61.98947 21043 ft 260 kts 53°
2026-04-25 02:12 -35.49759 -61.97039 21043 ft 259 kts 53°
2026-04-25 02:12 -35.48854 -61.95173 21047 ft 259 kts 53°
2026-04-25 02:12 -35.47917 -61.93245 21045 ft 259 kts 53°
2026-04-25 02:12 -35.46994 -61.91345 21046 ft 259 kts 53°
2026-04-25 02:13 -35.46081 -61.89466 21044 ft 259 kts 53°
2026-04-25 02:13 -35.45149 -61.87550 21047 ft 259 kts 53°
2026-04-25 02:13 -35.44234 -61.85670 21044 ft 259 kts 53°
2026-04-25 02:13 -35.43313 -61.83777 21041 ft 259 kts 53°
2026-04-25 02:14 -35.42389 -61.81882 21043 ft 259 kts 53°
2026-04-25 02:14 -35.41769 -61.80609 21040 ft 258 kts 53°
2026-04-25 02:14 -35.40551 -61.78112 21042 ft 258 kts 53°
2026-04-25 02:14 -35.39921 -61.76821 21044 ft 258 kts 53°
2026-04-25 02:15 -35.39022 -61.74942 21045 ft 260 kts 58°
2026-04-25 02:15 -35.38461 -61.72808 21049 ft 265 kts 76°
2026-04-25 02:15 -35.38117 -61.70584 21051 ft 264 kts 76°
2026-04-25 02:15 -35.37760 -61.68396 21048 ft 264 kts 75°
2026-04-25 02:16 -35.37402 -61.66207 21048 ft 264 kts 76°
2026-04-25 02:16 -35.37041 -61.63978 21050 ft 264 kts 76°
2026-04-25 02:16 -35.36683 -61.61765 21050 ft 265 kts 76°
2026-04-25 02:16 -35.36328 -61.59575 21048 ft 265 kts 75°
2026-04-25 02:17 -35.35966 -61.57353 21049 ft 265 kts 75°
2026-04-25 02:17 -35.35609 -61.55161 21048 ft 264 kts 75°
2026-04-25 02:17 -35.35248 -61.52948 21047 ft 264 kts 75°
2026-04-25 02:17 -35.34886 -61.50732 21047 ft 264 kts 75°
2026-04-25 02:18 -35.34523 -61.48508 21047 ft 264 kts 75°
2026-04-25 02:18 -35.34169 -61.46346 21046 ft 264 kts 75°
2026-04-25 02:18 -35.33805 -61.44122 21046 ft 264 kts 75°
2026-04-25 02:18 -35.33441 -61.41905 21046 ft 264 kts 75°
2026-04-25 02:19 -35.33084 -61.39735 21044 ft 264 kts 75°
2026-04-25 02:19 -35.32722 -61.37530 21046 ft 264 kts 75°
2026-04-25 02:19 -35.32360 -61.35332 21045 ft 264 kts 75°
2026-04-25 02:19 -35.31999 -61.33142 21046 ft 263 kts 75°
2026-04-25 02:20 -35.31636 -61.30943 21047 ft 263 kts 75°
2026-04-25 02:20 -35.31270 -61.28725 21044 ft 263 kts 75°
2026-04-25 02:20 -35.30907 -61.26530 21043 ft 263 kts 75°
2026-04-25 02:20 -35.30549 -61.24367 21042 ft 263 kts 75°
2026-04-25 02:21 -35.30181 -61.22148 21042 ft 263 kts 75°
2026-04-25 02:21 -35.29819 -61.19969 21041 ft 263 kts 75°
2026-04-25 02:21 -35.29455 -61.17776 21039 ft 263 kts 75°
2026-04-25 02:21 -35.29091 -61.15591 21044 ft 263 kts 75°
2026-04-25 02:22 -35.28723 -61.13381 21044 ft 263 kts 75°
2026-04-25 02:22 -35.28428 -61.11612 21043 ft 263 kts 75°
2026-04-25 02:22 -35.28066 -61.09446 21041 ft 263 kts 75°
2026-04-25 02:22 -35.27697 -61.07235 21041 ft 263 kts 75°
2026-04-25 02:23 -35.27335 -61.05071 21044 ft 263 kts 75°
2026-04-25 02:23 -35.26965 -61.02865 21042 ft 263 kts 75°
2026-04-25 02:23 -35.26595 -61.00659 21039 ft 263 kts 75°
2026-04-25 02:23 -35.26231 -60.98493 21043 ft 263 kts 75°
2026-04-25 02:24 -35.25864 -60.96304 21041 ft 263 kts 75°
2026-04-25 02:24 -35.25494 -60.94109 21042 ft 262 kts 75°
2026-04-25 02:24 -35.25129 -60.91945 21042 ft 262 kts 75°
2026-04-25 02:24 -35.24762 -60.89767 21041 ft 262 kts 75°
2026-04-25 02:25 -35.24392 -60.87579 21041 ft 262 kts 75°
2026-04-25 02:25 -35.24017 -60.85356 21040 ft 262 kts 75°
2026-04-25 02:25 -35.23647 -60.83170 21040 ft 262 kts 75°
2026-04-25 02:25 -35.23276 -60.80984 21040 ft 262 kts 75°
2026-04-25 02:26 -35.22909 -60.78821 21039 ft 262 kts 75°
2026-04-25 02:26 -35.22536 -60.76623 21040 ft 262 kts 75°
2026-04-25 02:26 -35.22165 -60.74444 21039 ft 263 kts 75°
2026-04-25 02:26 -35.21794 -60.72261 21041 ft 263 kts 75°
2026-04-25 02:27 -35.21421 -60.70075 21042 ft 263 kts 75°
2026-04-25 02:27 -35.21048 -60.67887 21042 ft 263 kts 75°
2026-04-25 02:27 -35.20673 -60.65692 21040 ft 263 kts 75°
2026-04-25 02:27 -35.20298 -60.63503 21039 ft 263 kts 75°
2026-04-25 02:28 -35.19924 -60.61316 21037 ft 263 kts 75°
2026-04-25 02:28 -35.19547 -60.59118 21038 ft 263 kts 75°
2026-04-25 02:28 -35.19176 -60.56954 21038 ft 263 kts 75°
2026-04-25 02:28 -35.18799 -60.54761 21037 ft 263 kts 74°
2026-04-25 02:29 -35.18421 -60.52565 21039 ft 263 kts 75°
2026-04-25 02:29 -35.18045 -60.50383 21038 ft 263 kts 74°
2026-04-25 02:29 -35.17666 -60.48185 21037 ft 263 kts 74°
2026-04-25 02:29 -35.17294 -60.46025 21042 ft 263 kts 75°
2026-04-25 02:30 -35.16915 -60.43831 21040 ft 263 kts 74°
2026-04-25 02:30 -35.16535 -60.41638 21040 ft 263 kts 74°
2026-04-25 02:30 -35.16155 -60.39445 21041 ft 263 kts 74°
2026-04-25 02:30 -35.15780 -60.37278 21042 ft 263 kts 74°
2026-04-25 02:31 -35.15399 -60.35084 21041 ft 263 kts 74°
2026-04-25 02:31 -35.15019 -60.32898 21041 ft 263 kts 74°
2026-04-25 02:31 -35.14636 -60.30695 21040 ft 263 kts 74°
2026-04-25 02:31 -35.14261 -60.28536 21038 ft 263 kts 74°
2026-04-25 02:32 -35.13878 -60.26337 21042 ft 263 kts 74°
2026-04-25 02:32 -35.13495 -60.24141 21036 ft 263 kts 74°
2026-04-25 02:32 -35.13117 -60.21978 21039 ft 263 kts 74°
2026-04-25 02:32 -35.12729 -60.19761 21037 ft 263 kts 74°
2026-04-25 02:33 -35.12351 -60.17601 21039 ft 263 kts 74°
2026-04-25 02:33 -35.11972 -60.15437 21044 ft 263 kts 74°
2026-04-25 02:33 -35.11585 -60.13226 21038 ft 258 kts 74°
2026-04-25 02:33 -35.11213 -60.11101 20838 ft 257 kts 74°
2026-04-25 02:34 -35.10839 -60.08982 20588 ft 260 kts 74°
2026-04-25 02:34 -35.10455 -60.06805 20346 ft 264 kts 75°
2026-04-25 02:34 -35.10066 -60.04597 20106 ft 267 kts 75°
2026-04-25 02:34 -35.09674 -60.02366 19869 ft 269 kts 75°
2026-04-25 02:35 -35.09277 -60.00118 19634 ft 271 kts 75°
2026-04-25 02:35 -35.08879 -59.97869 19395 ft 271 kts 75°
2026-04-25 02:35 -35.08484 -59.95633 19169 ft 272 kts 75°
2026-04-25 02:35 -35.08082 -59.93366 18932 ft 272 kts 75°
2026-04-25 02:36 -35.07682 -59.91109 18699 ft 272 kts 75°
2026-04-25 02:36 -35.07281 -59.88849 18463 ft 272 kts 75°
2026-04-25 02:36 -35.06880 -59.86594 18215 ft 271 kts 75°
2026-04-25 02:36 -35.06485 -59.84372 17940 ft 271 kts 75°
2026-04-25 02:37 -35.06085 -59.82127 17687 ft 270 kts 75°
2026-04-25 02:37 -35.05685 -59.79887 17423 ft 269 kts 76°
2026-04-25 02:37 -35.05286 -59.77654 17161 ft 268 kts 76°
2026-04-25 02:37 -35.04889 -59.75433 16905 ft 267 kts 76°
2026-04-25 02:38 -35.04497 -59.73242 16650 ft 266 kts 76°
2026-04-25 02:38 -35.04102 -59.71037 16396 ft 265 kts 76°
2026-04-25 02:38 -35.03708 -59.68841 16139 ft 264 kts 76°
2026-04-25 02:38 -35.03315 -59.66651 15890 ft 263 kts 76°
2026-04-25 02:39 -35.02925 -59.64482 15643 ft 262 kts 76°
2026-04-25 02:39 -35.02405 -59.62385 15393 ft 258 kts 62°
2026-04-25 02:39 -35.01461 -59.60523 15144 ft 255 kts 52°
2026-04-25 02:39 -35.00389 -59.58866 14906 ft 251 kts 41°
2026-04-25 02:40 -34.99105 -59.57435 14666 ft 249 kts 37°
2026-04-25 02:40 -34.97803 -59.55990 14405 ft 254 kts 40°
2026-04-25 02:40 -34.96551 -59.54437 14129 ft 258 kts 43°
2026-04-25 02:40 -34.95320 -59.52876 13853 ft 259 kts 43°
2026-04-25 02:41 -34.94049 -59.51305 13545 ft 260 kts 42°
2026-04-25 02:41 -34.92774 -59.49742 13237 ft 260 kts 42°
2026-04-25 02:41 -34.91498 -59.48173 12926 ft 259 kts 43°
2026-04-25 02:41 -34.90228 -59.46607 12616 ft 258 kts 43°
2026-04-25 02:42 -34.88965 -59.45053 12304 ft 257 kts 43°
2026-04-25 02:42 -34.87719 -59.43520 12014 ft 256 kts 43°
2026-04-25 02:42 -34.86464 -59.41977 11716 ft 255 kts 43°
2026-04-25 02:42 -34.85215 -59.40442 11418 ft 254 kts 43°
2026-04-25 02:43 -34.83975 -59.38918 11127 ft 252 kts 43°
2026-04-25 02:43 -34.82738 -59.37401 10833 ft 251 kts 43°
2026-04-25 02:43 -34.81523 -59.35909 10550 ft 250 kts 44°
2026-04-25 02:43 -34.80295 -59.34403 10255 ft 249 kts 44°
2026-04-25 02:44 -34.79086 -59.32920 9987 ft 247 kts 44°
2026-04-25 02:44 -34.77883 -59.31446 9674 ft 246 kts 44°
2026-04-25 02:44 -34.76675 -59.29966 9359 ft 244 kts 44°
2026-04-25 02:44 -34.75482 -59.28504 9058 ft 243 kts 44°
2026-04-25 02:45 -34.74303 -59.27061 8748 ft 241 kts 44°
2026-04-25 02:45 -34.73125 -59.25621 8443 ft 239 kts 44°
2026-04-25 02:45 -34.71959 -59.24194 8145 ft 237 kts 44°
2026-04-25 02:45 -34.70800 -59.22777 7851 ft 235 kts 44°
2026-04-25 02:46 -34.69646 -59.21368 7552 ft 234 kts 44°
2026-04-25 02:46 -34.68516 -59.19987 7261 ft 232 kts 44°
2026-04-25 02:46 -34.67380 -59.18600 6973 ft 230 kts 44°
2026-04-25 02:46 -34.66249 -59.17220 6678 ft 229 kts 44°
2026-04-25 02:47 -34.65130 -59.15855 6388 ft 227 kts 44°
2026-04-25 02:47 -34.64015 -59.14495 6086 ft 226 kts 44°
2026-04-25 02:47 -34.62908 -59.13146 5785 ft 225 kts 44°
2026-04-25 02:47 -34.61820 -59.11820 5486 ft 224 kts 44°
2026-04-25 02:48 -34.60725 -59.10486 5191 ft 223 kts 44°
2026-04-25 02:48 -34.59633 -59.09157 4898 ft 222 kts 44°
2026-04-25 02:48 -34.58546 -59.07834 4595 ft 221 kts 44°
2026-04-25 02:48 -34.57465 -59.06519 4293 ft 219 kts 44°
2026-04-25 02:49 -34.56388 -59.05209 3996 ft 218 kts 44°
2026-04-25 02:49 -34.55318 -59.03907 3699 ft 217 kts 44°
2026-04-25 02:49 -34.54252 -59.02613 3402 ft 215 kts 43°
2026-04-25 02:49 -34.53196 -59.01330 3108 ft 214 kts 43°
2026-04-25 02:50 -34.52163 -59.00075 3001 ft 204 kts 43°
2026-04-25 02:50 -34.51185 -58.98889 2992 ft 195 kts 43°
2026-04-25 02:50 -34.50252 -58.97756 2991 ft 189 kts 43°
2026-04-25 02:50 -34.49323 -58.96631 2991 ft 186 kts 43°
2026-04-25 02:51 -34.48412 -58.95527 2986 ft 185 kts 43°
2026-04-25 02:51 -34.47504 -58.94426 2990 ft 184 kts 43°
2026-04-25 02:51 -34.46601 -58.93332 2992 ft 183 kts 43°
2026-04-25 02:51 -34.45702 -58.92243 2990 ft 183 kts 43°
2026-04-25 02:52 -34.44810 -58.91163 2995 ft 183 kts 43°
2026-04-25 02:52 -34.43909 -58.90072 2993 ft 183 kts 43°
2026-04-25 02:52 -34.43011 -58.88985 2994 ft 182 kts 43°
2026-04-25 02:52 -34.42122 -58.87910 2993 ft 182 kts 43°
2026-04-25 02:53 -34.41223 -58.86823 2992 ft 182 kts 43°
2026-04-25 02:53 -34.40325 -58.85737 2994 ft 182 kts 43°
2026-04-25 02:53 -34.39423 -58.84647 2997 ft 182 kts 43°
2026-04-25 02:53 -34.38527 -58.83565 2994 ft 182 kts 43°
2026-04-25 02:54 -34.37627 -58.82478 2994 ft 182 kts 43°
2026-04-25 02:54 -34.36728 -58.81392 2996 ft 182 kts 43°
2026-04-25 02:54 -34.35827 -58.80304 2996 ft 182 kts 43°
2026-04-25 02:54 -34.34928 -58.79220 2995 ft 182 kts 43°
2026-04-25 02:55 -34.34042 -58.78150 2995 ft 182 kts 43°
2026-04-25 02:55 -34.33142 -58.77065 2995 ft 182 kts 43°
2026-04-25 02:55 -34.32425 -58.75804 2992 ft 185 kts 67°
2026-04-25 02:55 -34.32134 -58.74290 2993 ft 185 kts 78°
2026-04-25 02:56 -34.31893 -58.72754 2996 ft 185 kts 77°
2026-04-25 02:56 -34.31647 -58.71219 2996 ft 186 kts 77°
2026-04-25 02:56 -34.31401 -58.69683 2997 ft 186 kts 77°
2026-04-25 02:56 -34.31159 -58.68166 2999 ft 186 kts 77°
2026-04-25 02:57 -34.30911 -58.66613 3000 ft 186 kts 77°
2026-04-25 02:57 -34.30668 -58.65096 2998 ft 186 kts 77°
2026-04-25 02:57 -34.30422 -58.63561 3000 ft 186 kts 77°
2026-04-25 02:57 -34.30175 -58.62023 3000 ft 186 kts 77°
2026-04-25 02:58 -34.29930 -58.60492 2997 ft 185 kts 77°
2026-04-25 02:58 -34.29684 -58.58961 2999 ft 185 kts 77°
2026-04-25 02:58 -34.29441 -58.57452 2997 ft 185 kts 77°
2026-04-25 02:58 -34.29195 -58.55918 2998 ft 185 kts 77°
2026-04-25 02:59 -34.28948 -58.54383 2999 ft 185 kts 77°
2026-04-25 02:59 -34.28700 -58.52848 3000 ft 185 kts 77°
2026-04-25 02:59 -34.28662 -58.51315 2995 ft 187 kts 99°
2026-04-25 02:59 -34.29165 -58.49848 2827 ft 188 kts 124°
2026-04-25 03:00 -34.30070 -58.48804 2646 ft 175 kts 147°
2026-04-25 03:00 -34.31087 -58.48058 2464 ft 167 kts 148°
2026-04-25 03:00 -34.32061 -58.47326 2268 ft 163 kts 148°
2026-04-25 03:00 -34.33024 -58.46674 2077 ft 160 kts 160°
2026-04-25 03:01 -34.34109 -58.46555 2000 ft 152 kts 189°
2026-04-25 03:01 -34.35058 -58.46975 1988 ft 142 kts 215°
2026-04-25 03:01 -34.35772 -58.47739 1994 ft 135 kts 227°
2026-04-25 03:01 -34.36443 -58.48512 1991 ft 129 kts 226°
2026-04-25 03:02 -34.37074 -58.49245 1990 ft 120 kts 226°
2026-04-25 03:02 -34.37653 -58.49922 1969 ft 117 kts 227°
2026-04-25 03:02 -34.38250 -58.50624 1847 ft 123 kts 226°
2026-04-25 03:02 -34.38881 -58.51365 1687 ft 130 kts 226°
2026-04-25 03:03 -34.39537 -58.52136 1507 ft 131 kts 226°
2026-04-25 03:03 -34.39972 -58.52645 1389 ft 131 kts 226°
2026-04-25 03:03 -34.40624 -58.53411 1207 ft 130 kts 225°
2026-04-25 03:03 -34.41485 -58.54422 971 ft 129 kts 225°
2026-04-25 03:04 -34.41913 -58.54924 849 ft 128 kts 225°
2026-04-25 03:04 -34.42552 -58.55674 681 ft 127 kts 224°
2026-04-25 03:04 -34.43183 -58.56415 512 ft 125 kts 224°
2026-04-25 03:05 -34.44309 -58.57734 208 ft 108 kts 224°
2026-04-25 03:05 -34.44832 -58.58348 72 ft 101 kts 223°
2026-04-25 03:05 -34.45285 -58.58886 22 ft 76 kts 224°
2026-04-25 03:05 -34.45583 -58.59237 21 ft 35 kts 224°
2026-04-25 03:06 -34.45692 -58.59297 21 ft 13 kts 152°
2026-04-25 03:06 -34.45726 -58.59274 21 ft 0 kts 150°
2026-04-25 03:07 -34.45738 -58.59266 21 ft 7 kts 149°
2026-04-25 03:08 -34.45806 -58.59218 21 ft 13 kts 150°
2026-04-25 03:08 -34.45875 -58.59169 21 ft 10 kts 152°
2026-04-25 03:08 -34.45883 -58.59135 21 ft 4 kts 58°
2026-04-25 03:08 -34.45869 -58.59105 21 ft 4 kts 63°
2026-04-25 03:09 -34.45853 -58.59089 21 ft 3 kts 340°
2026-04-25 03:09 -34.45855 -58.59101 21 ft 1 kts 192°
2026-04-25 03:09 -34.45856 -58.59102 21 ft 0 kts 192°